Hourly Weather Otoka

Today, 24 July, Saturday

Time Temperature Precipitation Wind Pressure Humidity
00:00 +19°C° 0 mm 1 mps 749 mmHg 73%
01:00 +19°C° 0 mm 1 mps 749 mmHg 75%
02:00 +19°C° 0 mm 1 mps 749 mmHg 76%
03:00 +19°C° 0 mm 1 mps 748 mmHg 77%
04:00 +18°C° 0 mm 1 mps 748 mmHg 77%
05:00 +19°C° 0 mm 1 mps 748 mmHg 75%
06:00 +20°C° 0 mm 1 mps 748 mmHg 73%
07:00 +21°C° 0 mm 1 mps 749 mmHg 69%
08:00 +21°C° 0 mm 2 mps 749 mmHg 65%
09:00 +23°C° 0 mm 2 mps 749 mmHg 61%
10:00 +25°C° 0 mm 2 mps 749 mmHg 57%
11:00 +26°C° 0 mm 2 mps 748 mmHg 53%
12:00 +27°C° 0 mm 2 mps 748 mmHg 49%
13:00 +28°C° 0 mm 3 mps 748 mmHg 45%
14:00 +28°C° 0 mm 3 mps 748 mmHg 45%
15:00 +28°C° 0 mm 3 mps 748 mmHg 45%
16:00 +28°C° 0 mm 2 mps 748 mmHg 45%
17:00 +27°C° 0 mm 2 mps 748 mmHg 51%
18:00 +26°C° 0 mm 2 mps 747 mmHg 57%
19:00 +24°C° 0 mm 2 mps 747 mmHg 63%
20:00 +24°C° 0 mm 3 mps 747 mmHg 64%
21:00 +22°C° 0 mm 3 mps 747 mmHg 64%
22:00 +21°C° 0 mm 3 mps 747 mmHg 65%
23:00 +21°C° 0 mm 3 mps 747 mmHg 66%

Tomorrow, 25 July, Sunday

Time Temperature Precipitation Wind Pressure Humidity
00:00 +21°C° 0 mm 3 mps 747 mmHg 66%
01:00 +20°C° 0 mm 3 mps 747 mmHg 67%
02:00 +20°C° 0 mm 3 mps 747 mmHg 66%
03:00 +20°C° 0 mm 3 mps 747 mmHg 66%
04:00 +20°C° 0 mm 3 mps 747 mmHg 65%
05:00 +20°C° 0 mm 3 mps 747 mmHg 64%
06:00 +21°C° 0 mm 3 mps 747 mmHg 64%
07:00 +22°C° 0 mm 3 mps 748 mmHg 63%
08:00 +25°C° 0 mm 3 mps 748 mmHg 57%
09:00 +27°C° 0 mm 4 mps 748 mmHg 51%
10:00 +29°C° 0 mm 4 mps 748 mmHg 45%
11:00 +30°C° 0 mm 4 mps 748 mmHg 42%
12:00 +32°C° 0 mm 5 mps 747 mmHg 39%
13:00 +32°C° 0 mm 5 mps 747 mmHg 37%
14:00 +32°C° 0 mm 5 mps 747 mmHg 37%
15:00 +32°C° 0 mm 5 mps 747 mmHg 38%
16:00 +32°C° 0 mm 5 mps 747 mmHg 39%
17:00 +29°C° 0 mm 5 mps 747 mmHg 44%
18:00 +28°C° 0 mm 5 mps 747 mmHg 48%
19:00 +27°C° 0 mm 5 mps 747 mmHg 53%
20:00 +26°C° 0 mm 5 mps 747 mmHg 55%
21:00 +25°C° 0 mm 5 mps 747 mmHg 57%
22:00 +25°C° 0 mm 5 mps 747 mmHg 59%
23:00 +25°C° 0 mm 5 mps 747 mmHg 60%

Day after tomorrow, 26 July, Monday

Time Temperature Precipitation Wind Pressure Humidity
00:00 +23°C° 0 mm 5 mps 747 mmHg 61%
01:00 +23°C° 0 mm 5 mps 747 mmHg 63%
02:00 +22°C° 0.1 mm 5 mps 746 mmHg 66%
03:00 +22°C° 0.1 mm 4 mps 746 mmHg 69%
04:00 +21°C° 0.1 mm 4 mps 746 mmHg 72%
05:00 +22°C° 0.1 mm 4 mps 746 mmHg 71%
06:00 +22°C° 0.1 mm 5 mps 746 mmHg 69%
07:00 +23°C° 0.1 mm 5 mps 746 mmHg 68%
08:00 +26°C° 0 mm 5 mps 746 mmHg 61%
09:00 +28°C° 0 mm 5 mps 747 mmHg 54%
10:00 +30°C° 0 mm 6 mps 747 mmHg 48%
11:00 +32°C° 0 mm 6 mps 746 mmHg 45%
12:00 +33°C° 0 mm 6 mps 746 mmHg 42%
13:00 +33°C° 0 mm 6 mps 746 mmHg 39%
14:00 +32°C° 0.1 mm 5 mps 746 mmHg 45%
15:00 +30°C° 0.1 mm 5 mps 746 mmHg 51%
16:00 +29°C° 0.1 mm 4 mps 746 mmHg 57%
17:00 +27°C° 0.7 mm 3 mps 746 mmHg 65%
18:00 +26°C° 0.7 mm 2 mps 746 mmHg 72%
19:00 +25°C° 0.7 mm 2 mps 746 mmHg 80%
20:00 +24°C° 0.1 mm 1 mps 746 mmHg 82%
21:00 +23°C° 0.1 mm 1 mps 747 mmHg 84%
22:00 +23°C° 0.1 mm 1 mps 747 mmHg 85%
23:00 +22°C° 0 mm 1 mps 747 mmHg 86%

27 July, Tuesday

Time Temperature Precipitation Wind Pressure Humidity
00:00 +22°C° 0 mm 1 mps 747 mmHg 87%
01:00 +22°C° 0 mm 1 mps 746 mmHg 87%
02:00 +22°C° 0.1 mm 1 mps 747 mmHg 88%
03:00 +21°C° 0.1 mm 1 mps 747 mmHg 89%
04:00 +21°C° 0.1 mm 1 mps 747 mmHg 90%
05:00 +22°C° 0.5 mm 1 mps 747 mmHg 88%
06:00 +23°C° 0.5 mm 1 mps 747 mmHg 85%
07:00 +24°C° 0.5 mm 1 mps 748 mmHg 83%
08:00 +26°C° 0 mm 1 mps 748 mmHg 75%
09:00 +27°C° 0 mm 1 mps 748 mmHg 67%
10:00 +29°C° 0 mm 1 mps 748 mmHg 60%
11:00 +30°C° 0 mm 1 mps 748 mmHg 56%
12:00 +31°C° 0 mm 1 mps 748 mmHg 53%
13:00 +31°C° 0 mm 2 mps 747 mmHg 49%
14:00 +31°C° 0 mm 2 mps 747 mmHg 51%
15:00 +30°C° 0 mm 1 mps 747 mmHg 53%
16:00 +30°C° 0 mm 1 mps 747 mmHg 55%
17:00 +28°C° 0.4 mm 2 mps 747 mmHg 64%
18:00 +26°C° 0.4 mm 2 mps 747 mmHg 73%
19:00 +23°C° 0.4 mm 2 mps 747 mmHg 83%
20:00 +23°C° 0.2 mm 2 mps 747 mmHg 85%
21:00 +21°C° 0.2 mm 2 mps 747 mmHg 86%
22:00 +21°C° 0.2 mm 1 mps 747 mmHg 88%
23:00 +21°C° 0.5 mm 1 mps 747 mmHg 89%

28 July, Wednesday

Time Temperature Precipitation Wind Pressure Humidity
00:00 +21°C° 0.5 mm 1 mps 747 mmHg 89%
01:00 +20°C° 0.5 mm 1 mps 747 mmHg 90%
02:00 +20°C° 0.4 mm 1 mps 747 mmHg 91%
03:00 +20°C° 0.4 mm 1 mps 747 mmHg 92%
04:00 +20°C° 0.4 mm 1 mps 747 mmHg 93%
05:00 +21°C° 0 mm 1 mps 747 mmHg 88%
06:00 +23°C° 0 mm 1 mps 747 mmHg 84%
07:00 +24°C° 0 mm 1 mps 747 mmHg 80%
08:00 +26°C° 0 mm 1 mps 747 mmHg 72%
09:00 +28°C° 0 mm 1 mps 747 mmHg 65%
10:00 +28°C° 0 mm 0 mps 747 mmHg 58%
11:00 +30°C° 0 mm 1 mps 747 mmHg 54%
12:00 +31°C° 0 mm 1 mps 746 mmHg 50%
13:00 +32°C° 0 mm 1 mps 746 mmHg 46%
14:00 +32°C° 0 mm 1 mps 746 mmHg 47%
15:00 +32°C° 0 mm 1 mps 745 mmHg 47%
16:00 +32°C° 0 mm 1 mps 745 mmHg 48%
17:00 +30°C° 0.2 mm 1 mps 745 mmHg 57%
18:00 +28°C° 0.2 mm 1 mps 745 mmHg 67%
19:00 +26°C° 0.2 mm 1 mps 745 mmHg 76%
20:00 +24°C° 1.6 mm 3 mps 746 mmHg 82%
21:00 +22°C° 1.6 mm 4 mps 746 mmHg 88%
22:00 +21°C° 1.6 mm 6 mps 746 mmHg 93%
23:00 +21°C° 0.1 mm 5 mps 747 mmHg 94%

29 July, Thursday

Time Temperature Precipitation Wind Pressure Humidity
00:00 +20°C° 0.1 mm 4 mps 747 mmHg 94%
01:00 +20°C° 0.1 mm 3 mps 747 mmHg 94%
02:00 +19°C° 0 mm 3 mps 747 mmHg 95%
03:00 +19°C° 0 mm 2 mps 747 mmHg 96%
04:00 +19°C° 0 mm 2 mps 748 mmHg 97%
05:00 +20°C° 0 mm 3 mps 748 mmHg 92%
06:00 +21°C° 0 mm 3 mps 748 mmHg 86%
07:00 +22°C° 0 mm 3 mps 749 mmHg 81%
08:00 +24°C° 0 mm 3 mps 749 mmHg 74%
09:00 +25°C° 0 mm 3 mps 749 mmHg 66%
10:00 +27°C° 0 mm 2 mps 749 mmHg 59%
11:00 +28°C° 0 mm 2 mps 749 mmHg 55%
12:00 +29°C° 0 mm 2 mps 748 mmHg 50%
13:00 +30°C° 0 mm 2 mps 748 mmHg 46%
14:00 +30°C° 0 mm 2 mps 748 mmHg 45%
15:00 +30°C° 0 mm 2 mps 748 mmHg 44%
16:00 +30°C° 0 mm 2 mps 747 mmHg 43%
17:00 +28°C° 0 mm 2 mps 747 mmHg 50%
18:00 +27°C° 0 mm 1 mps 747 mmHg 57%
19:00 +25°C° 0 mm 1 mps 747 mmHg 64%
20:00 +24°C° 0 mm 1 mps 747 mmHg 67%
21:00 +23°C° 0 mm 1 mps 747 mmHg 71%
22:00 +22°C° 0 mm 1 mps 747 mmHg 74%
23:00 +22°C° 0 mm 1 mps 747 mmHg 77%
Show more